Regional Weather Roundup
Issued by NWS Newport/Morehead, NC

Current Version | Previous Version | Graphics & Text | Print | Product List | Glossary Off
Versions: 1 2 3 4 5 6 7 8 9 10 11 12 13 14 15 16 17 18 19 20 21 22 23 24 25 26 27 28 29 30 31 32 33 34 35 36 37 38 39 40 41 42 43 44 45 46 47 48 49 50
000 ASUS42 KMHX 051612 RWRMHX WEATHER ROUNDUP FOR EASTERN NORTH CAROLINA NATIONAL WEATHER SERVICE NEWPORT/MOREHEAD CITY NC 1100 AM EST THU MAR 05 2015 NOTE: "FAIR" INDICATES FEW OR NO CLOUDS BELOW 12,000 FEET WITH NO SIGNIFICANT WEATHER AND/OR OBSTRUCTIONS TO VISIBILITY NCZ015>017-031-032-045>047-102-103-051700- NORTH COAST CITY SKY/WX TMP DP RH WIND PRES REMARKS EDENTON CLOUDY 41 40 95 NE13G18 30.02R ELIZABETH CITY LGT RAIN 40 37 89 NE16 30.05R KITTY HAWK CLOUDY 38 38 100 N8G21 30.01R FOG MANTEO CLOUDY 39 37 93 N20G29 30.02R $$ NCZ045>047-081-094-103-104-051700- CENTRAL COAST CITY SKY/WX TMP DP RH WIND PRES REMARKS FRISCO FOG 60 60 100 SW14 29.97S VSB 1/2 SWANQUARTER N/A 68 N/A N/A S3G10 29.91S $$ NCZ095-097-098-100-101-051700- SOUTHERN COAST CITY SKY/WX TMP DP RH WIND PRES REMARKS BEAUFORT CLOUDY 60 60 100 SW14 29.99R FOG CEDAR ISLAND N/A 70 N/A N/A SW13G20 30.00S JACKSONVILLE MOSUNNY 77 61 57 SW21G32 29.94F PINEY ISLAND N/A N/A N/A N/A MISG 29.96S WILMINGTON MOSUNNY 72 62 71 SW16G24 29.97F $$ NCZ011>013-027>030-043-044-078>080-089-090>093-098-051700- COASTAL PLAIN CITY SKY/WX TMP DP RH WIND PRES REMARKS AHOSKIE NOT AVBL CLINTON CLOUDY 72 63 73 SW14G26 29.95R ELIZABETHTOWN MOSUNNY 73 61 64 SW18G25 29.96S GOLDSBORO PTSUNNY 74 73 97 SW24G38 29.89S GREENVILLE CLOUDY 54 50 87 N16 29.99R HAVELOCK MOSUNNY 75 62 64 SW20G25 29.96F KENANSVILLE PTSUNNY 76 61 58 SW12G21 29.94F KINSTON PTSUNNY 77 63 61 SW18G26 29.93S NEW BERN MOSUNNY 80 61 52 SW16G32 29.94F RICHLANDS MOSUNNY 77 61 57 SW24G32 29.94F ROCKY MOUNT LGT RAIN 46 44 93 NE14G25 29.98R FOG WASHINGTON PTSUNNY 52 48 86 NE13G18 29.96R WHITEVILLE MOSUNNY 74 62 66 SW12G18 29.96F $$ AMZ130-135-150-152-154-156-158-170-250-252-270-ANZ085-086-088-633-658-670-051700- MARINE OBSERVATIONS STATION/POSITION TIME TEMP WIND PRES WAVE SWELL AIR SEA DIR/SP/G HT/PER HT/PER (UTC) (F) (DEG/KT/KT) (MB) (FT/S) (FT/S) CHESAPEAKE LIGHT 1500 36 10/ 23/ 25 1017.1 64 E VA BEACH 1550 46 51 10/ 19/ 27 1015.2 7/ 6 2/11 DUCK 1500 37 36 10/ 15/ 19 1015.2 2 E DUCK 1511 35 N/A 4/ 4 2/11 10 NE DUCK 1522 38 N/A 5/ 5 2/11 OREGON INLET 1500 50 350/ 11/ 15 1016.0 HATTERAS CG 1500 60 49 230/ 10/ 16 1015.1 CAPE LOOKOUT 1600 63 230/ 10/ 13 1015.3 BEAUFORT LAB 1500 58 47 240/ 5/ 11 1014.2 27 SE WRIGHTSVLE NOT AVBL 5 SE WRIGHTSVLE NOT AVBL 225 S CAPE HAT 1550 74 73 220/ 21/ 25 1021.2 6/ 7 3/10 41 SE CHARLESTON 1550 69 68 210/ 19/ 23 1016.3 6/ 6 3/11 $$

USA.gov is the U.S. government's official web portal to all federal, state and local government web resources and services.